Rbgn^[z[y[W
メイン
   新天体発見情報
     Comet C/2018 O1 (ATLAS)
投稿するにはまず登録を

フラット表示 前のトピック | 次のトピック
投稿者 スレッド
佐藤裕久
投稿日時: 2018-8-21 22:55
モデレータ
登録日: 2005-6-12
居住地: 日本
投稿: 2505
オンライン
Comet C/2018 O1 (ATLAS)

7月22日UT、ハワイ Mauna Loaにある小惑星地球衝突最終警報システム Asteroid Terrestrial-impact 
Last Alert System (ATLAS)調査プログラムのコースに0.5-m f/2 Schmidt反射望遠鏡で外見上の小惑星
状天体が発見された。
小惑星センターのNEOCPとPCCP webpageに公表後、佐藤英貴氏(東京都文京区, iTelescope天文台,7月
23.4日UT, 20秒露出20枚のスタック, 0.43-m f/6.8 アストログラフ, Mayhill近郊, ニューメキシコ州, 
遠隔操作:強い集光のある10"のコマはあるが尾はない。7".6の円形範囲で測定したw-バンド光度は18.8等
であった)らCCD観測者によって彗星状と観測された。

発見位置は次のとおり、

     2018 UT             R.A. (2000) Decl.       Nag,
     July 22.54515   20 58 02.04   +25 28 22.1   18.7
          22.55244   20 57 57.72   +25 28 06.0   18.7
          22.56451   20 57 50.53   +25 27 43.4   18.5
          22.57295   20 57 45.46   +25 27 27.4   18.6

楕円軌道要素と位置推算表は次のとおり、

Orbital elements:
    C/2018 O1 (ATLAS)
Epoch 2018 Aug. 30.0 TT = JDT 2458360.5
T 2018 Aug. 31.57674 TT                                 MPCW
q   1.5581463            (2000.0)            P               Q
n   0.00672211     Peri.  162.50810     +0.23040880     -0.86927178
a  27.8055955      Node    87.62021     -0.93693325     -0.07679325
e   0.9439629      Incl.  154.04078     -0.26280767     -0.48833325
P 147
From 311 observations 2018 July 15-Aug. 16, mean residual 0".5.

    C/2018 O1 (ATLAS)
Epoch 2018 Mar. 23.0 TT = JDT 2458200.5
T 2018 Aug. 31.56911 TT                                 MPCW
q   1.5581888            (2000.0)            P               Q
n   0.00671775     Peri.  162.50171     +0.23047832     -0.86925411
a  27.8176289      Node    87.61857     -0.93693062     -0.07687530
e   0.9439856      Incl.  154.04084     -0.26275607     -0.48835180
P 147
From 311 observations 2018 July 15-Aug. 16, mean residual 0".5.

Ephemeris:
    C/2018 O1 (ATLAS)
Date    TT    R. A. (2000) Decl.     Delta      r     Elong.  Phase   m1
2018 07 18    21 39 12.1 +27 12 49   0.8641  1.6672   124.7    30.1  18.9
...
2018 08 02    19 05 40.7 +15 44 21   0.7024  1.6074   138.1    25.0  18.3
...
2018 08 10    17 50 34.8 +05 28 27   0.7728  1.5846   124.4    31.8  18.4
...
2018 08 16    17 09 44.7 -01 04 39   0.8833  1.5720   111.8    36.7  18.7
2018 08 17    17 04 09.2 -02 01 01   0.9051  1.5703   109.8    37.3  18.7
2018 08 18    16 58 52.1 -02 54 47   0.9276  1.5687   107.9    37.9  18.8
...
2018 08 24    16 32 48.4 -07 28 16   1.0746  1.5614    96.9    40.0  19.1
...
2018 09 01    16 09 24.0 -11 51 03   1.2892  1.5582    84.4    40.1  19.5
...
2018 09 16    15 45 42.9 -17 06 08   1.7002  1.5717    65.2    35.5  20.1

(CBET 4543、MPEC 2018-Q22)

フラット表示 前のトピック | 次のトピック

題名 投稿者 日時
 » Comet C/2018 O1 (ATLAS) 佐藤裕久 2018-8-21 22:55

投稿するにはまず登録を
 
© 1999 Tsutomu Seki.